Regional Weather Roundup
Issued by NWS

Home | Current Version | Previous Version | Text Only | Print | Product List | Glossary Off
Versions: 1 2 3 4 5 6 7 8 9 10 11 12 13 14 15 16 17 18 19 20 21 22 23 24 25 26 27

000
ASUS45 KCYS 261910
RWRWY

WYOMING REGIONAL WEATHER ROUNDUP
NATIONAL WEATHER SERVICE CHEYENNE WY
1200 PM MST SUN FEB 26 2017

NOTE:  "FAIR" INDICATES FEW OR NO CLOUDS BELOW 12,000 FEET
WITH NO SIGNIFICANT WEATHER AND/OR OBSTRUCTIONS TO VISIBILITY.

WYZ001-262000-
YELLOWSTONE NATIONAL PARK

CITY           SKY/WX    TMP DP  RH WIND       PRES   REMARKS
LK YELLOWSTONE   N/A     15   7  70 VRB7      29.70S WCI   5
W YELLOWSTONE  NOT AVBL

$$
WYZ002>013-054>058-071-098>099-262000-
NORTHERN WYOMING

CITY           SKY/WX    TMP DP  RH WIND       PRES   REMARKS
JACKSON        PTSUNNY   19  12  73 S17       29.76F WCI   4
CODY           FAIR      30   4  33 NW8       29.72S WCI  22
GREYBULL       FAIR      29   8  41 SE5       29.77F WCI  24
WORLAND        FAIR      28   7  41 S7        29.77F WCI  21
SHERIDAN       FAIR      35  12  38 S7G16     29.73F WCI  29
BUFFALO        FAIR      28  11  48 SE6       29.72S WCI  22
GILLETTE       FAIR      30  11  45 SW8       29.74S WCI  22
HULETT         MOCLDY    32  12  43 W12G17    29.74F WCI  23
NEWCASTLE      FAIR      21   9  58 SE7       29.81F WCI  13

$$
WYZ014>020-022>026-101>103-262000-
CENTRAL WYOMING

CITY           SKY/WX    TMP DP  RH WIND       PRES   REMARKS
BIG PINEY      FAIR       5  -3  69 CALM      29.80F
PINEDALE       MOCLDY     5  -2  72 E3        29.80S
DUBOIS         FAIR      19   1  45 W22G28    29.66F WCI   3
LANDER         FAIR      20   0  41 CALM      29.74S
RIVERTON       FAIR      20   5  52 S13       29.74F WCI   7
CASPER         FAIR      21   7  54 SW16      29.78F WCI   7
DOUGLAS        FAIR      25  11  55 W28G35    29.76F WCI   9

$$
WYZ021-027>030-104>119-262000-
SOUTHERN WYOMING

CITY           SKY/WX    TMP DP  RH WIND       PRES   REMARKS
EVANSTON       FAIR      17   8  67 SW10      29.80F WCI   5
FORT BRIDGER   FAIR      22   9  57 W13       29.84F WCI  10
ROCK SPRINGS   FAIR      20   5  52 SW15      29.83S WCI   6
DIXON            N/A     24   6  45 SW17G26   29.90F WCI  11
RAWLINS        FAIR      18   7  62 SW23G35   29.80F WCI   0
SARATOGA       FAIR      23   3  42 W13       29.82F WCI  11
LARAMIE        FAIR      22   4  46 SW23G30   29.72F WCI   6
CHEYENNE       FAIR      23   9  55 SW12      29.78S WCI  12
TORRINGTON     FAIR      28  10  46 W14       29.83S WCI  17
PINE BLUFFS    FAIR      30  10  43 SW10G23   29.83S WCI  21

$$




USA.gov is the U.S. government's official web portal to all federal, state and local government web resources and services.